Location: Newark
(43.6583°N, 1.6617°E)
Time: 22:24:57
(UTC+00:00)

Vanguard 1 Rocket - Pass Details

Date: 27 August 2019
Orbit: 651 x 4225 km, 34.3° (Epoch: 19 September)

Event Time Altitude Azimuth Distance (km) Brightness Sun altitude
Rises 01:44:33 0° 240° (WSW) 3,074 - -30.7°
Reaches altitude 10° 01:47:14 10° 226° (SW) 2,059 - -30.4°
Maximum altitude 01:50:52 25° 170° (S) 1,330 - -30.1°
Exits shadow 01:54:26 12° 117° (ESE) 2,135 9.4 -29.7°
Drops below altitude 10° 01:54:51 10° 114° (ESE) 2,278 9.5 -29.6°
Sets 01:58:00 0° 102° (ESE) 3,490 10.7 -29.3°
